20:17
Airports
History
Links
Donate
Help keep this website running!
PayPal
Bitcoin
This page is community maintained. The information is intended for PC simulator navigation or reference.
Always use approved charts for navigation.
1IA6
Aero-Lane
Aero-Lane (1IA6)
Randolph, Iowa, United States (51649)
4
Lat/Lng:40° 53' 5.99" N / 95° 29' 6.98" W
40.884998 / -95.485272
Elevation:1134'ft / 346mMSL
ID / ICAO:1IA6
Runways:1
Longest:02-20
Grass 435m / 1,426ft
Nearby Weather19:55 GMT 2018-01-21
Nearby weather at KSDA, Shenandoah Muni located 9.9 nautical miles from 1IA6
Altimeter: 29.71
Visibility: 0.5 statute miles
Wind: 7 knots (from 040°)
Temp: 7°c / 45°f
Humidity: 100.0%

METAR: KSDA 211955Z AUTO 04007KT 1/2SM FG OVC003 07/07 A2971 RMK AO2

(Powered by phpweather)
Nearby VORs <50NM
Nearby NDBs
Runway 02 / 20
Dimensions:434.5 x 15.2m 1426' x 50'ft
Surface:Grass
Runway 02 [A]Runway 20 [B]
Heading:025°TH 205°TH
Lat:
Lng:
40° 52' 59.62"N
95° 29' 10.91"W
40° 53' 12.37"N
95° 29' 3.05"W
User Notes and Comments
40° 53' 5.99" N / 95° 29' 6.98" W
Distance To
Airport ID:
Nearby Airports
(U) Shenandoah Muni 9.9 NM
KSDA ( WX ) SSE 157°
(U) Red Oak Muni 14.7 NM
KRDK ( WX ) NE 53°
4 Cole 22.9 NM
NE77 WNW 283°
(U) Plattsmouth Muni 23.0 NM
KPMV W 280°
4 Roll Bros 24.3 NM
K10 SW 227°
4 Jacobs 24.5 NM
4IA6 NE 56°
(U) Grundman 25.2 NM
3GN SW 231°
VFR Chart
Flight Planning at SkyVector.com